Location: Handeloh
(53.2500°N, 9.8330°E)
Time: 14:54:29
(UTC+02:00)

Envisat - Visible Passes

Search period start: 14 October 2019 00:00
Search period end: 24 October 2019 00:00
Orbit: 764 x 766 km, 98.1° (Epoch: 14 October)

Date Brightness Start Highest point End Pass type
(mag) Time Alt. Az. Time Alt. Az. Time Alt. Az.
14 Oct 6.2 06:57:15 10° NE 07:00:12 15° E 07:03:07 10° ESE visible
14 Oct 4.4 19:56:09 10° SSW 20:00:56 41° W 20:05:45 10° NNW visible
15 Oct 3.2 19:18:56 10° SSE 19:24:01 79° WSW 19:29:08 10° NNW visible
15 Oct 6.1 21:01:19 10° WSW 21:03:54 14° W 21:06:31 10° NW visible
16 Oct 5.2 20:22:24 10° SSW 20:26:39 26° W 20:30:55 10° NW visible
17 Oct 6.4 06:46:39 10° ENE 06:48:45 12° E 06:50:51 10° ESE visible
17 Oct 4.0 19:44:40 10° S 19:49:36 50° W 19:54:34 10° NNW visible
18 Oct 3.0 19:07:39 10° SSE 19:12:44 87° ENE 19:17:52 10° NNW visible
18 Oct 5.9 20:49:13 10° SW 20:52:29 17° W 20:55:45 10° NW visible
19 Oct 6.0 07:10:56 10° NE 07:14:38 20° E 07:18:20 10° SE visible
19 Oct 4.9 20:10:46 10° SSW 20:15:17 32° W 20:19:50 10° NNW visible
20 Oct 3.6 19:33:16 10° S 19:38:17 60° WSW 19:43:21 10° NNW visible
20 Oct 6.3 21:17:44 10° W 21:18:25 10° W 21:19:05 10° WNW visible
21 Oct 3.0 18:56:25 10° SSE 19:01:29 73° ENE 19:06:34 10° NNW visible
21 Oct 5.6 20:37:19 10° SW 20:41:04 20° W 20:44:50 10° NW visible
22 Oct 6.1 07:00:02 10° NE 07:03:14 16° E 07:06:24 10° SE visible
22 Oct 4.5 19:59:13 10° SSW 20:03:56 38° W 20:08:41 10° NNW visible
23 Oct 3.3 19:21:55 10° S 19:26:59 73° WSW 19:32:06 10° NNW visible
23 Oct 6.1 21:04:42 10° WSW 21:06:57 13° W 21:09:12 10° WNW visible
